FW9881 Weather Reports


time (UTC)temp
C
wind
direction
speed
KPH
gust
KPH
rain 1hr
cm
rain 24hr
cm
rain mn
cm
humidity
%
barometer
mb
20260906050204 13 337 0.0 0.0 0.13 0.97 0.15 85 1017.8
20260906045205 13 337 0.0 0.0 0.15 0.97 0.15 85 1017.7
20260906044205 13 337 0.0 0.0 0.13 0.94 0.13 86 1017.8
20260906043205 13 337 0.0 0.0 0.13 0.94 0.13 85 1017.8
20260906042203 14 337 0.0 0.0 0.13 0.94 0.10 86 1017.9
20260906042104 14 337 0.0 0.0 0.10 0.91 0.10 86 1017.8
20260906041204 14 337 0.0 0.0 0.08 0.89 0.08 86 1017.8
20260906040303 13 315 0.0 0.0 0.05 0.84 0.03 86 1017.7
20260906035306 -17 0 0.0 0.0 0.03 0.81 0.00 100
20260906035204 -17 0 0.0 0.0 0.03 0.81 0.00 100
20260906034229 13 315 0.0 0.0 0.05 0.81 0.81 86 1017.6
20260906034146 13 315 0.0 0.0 0.05 0.81 0.81 86 1017.6
20260906031228 13 315 0.0 0.0 0.10 0.81 0.79 87 1017.3
20260906031145 14 315 0.0 0.0 0.08 0.79 0.79 87 1017.4
20260906031027 14 315 0.0 0.0 0.08 0.79 0.79 86 1017.4
20260906030028 14 315 0.0 0.0 0.08 0.79 0.79 87 1017.5
20260906025028 14 315 0.0 0.0 0.13 0.79 0.79 86 1017.6
20260906024030 14 315 0.0 0.0 0.10 0.76 0.76 87 1017.6
20260906023028 14 315 0.0 0.0 0.13 0.76 0.76 87 1017.7
20260906022029 14 315 0.0 0.0 0.10 0.71 0.71 87 1017.6
20260906021030 15 346 0.0 1.6 0.08 0.71 0.71 86 1017.6
20260906020028 15 270 0.0 0.0 0.10 0.71 0.71 86 1017.5
20260906013927 15 337 0.0 0.0 0.13 0.64 0.64 87 1017.5
20260906012944 15 360 0.0 1.6 0.23 0.64 0.64 88 1017.5
20260906011930 15 360 0.0 0.0 0.30 0.64 0.64 87 1017.6
20260906011827 15 360 0.0 0.0 0.33 0.64 0.64 88 1017.5
20260906010828 15 360 0.0 0.0 0.41 0.64 0.64 88 1017.5
20260906010729 15 360 0.0 0.0 0.43 0.64 0.64 88 1017.4
20260906005826 15 177 0.0 3.2 0.46 0.61 0.61 89 1017.4
20260906004828 15 360 0.0 0.0 0.46 0.56 0.56 89 1017.4
20260906003829 15 337 0.0 3.2 0.41 0.51 0.48 88 1017.1
20260906003746 15 337 3.2 6.4 0.38 0.48 0.48 89 1017.2
20260906000927 16 112 0.0 0.0 0.13 0.23 0.23 89 1016.8
20260906000830 16 112 0.0 0.0 0.13 0.23 0.20 89 1016.9
20260905235828 16 174 0.0 0.0 0.05 0.15 0.13 88 1016.6
20260905233844 16 180 0.0 0.0 0.00 0.10 0.10 88 1016.3
20260905232842 16 180 0.0 0.0 0.00 0.10 0.10 88 1016.2
20260905231828 16 180 0.0 0.0 0.00 0.10 0.10 86 1016.2
20260905230927 16 157 0.0 0.0 0.00 0.10 0.10 87 1016.1
20260905225929 17 157 0.0 0.0 0.00 0.10 0.10 86 1016.1
20260905225831 17 157 0.0 0.0 0.00 0.10 0.10 85 1016.0
20260905224828 17 157 0.0 1.6 0.00 0.10 0.10 85 1016.0
20260905224729 17 157 0.0 1.6 0.00 0.10 0.10 84 1016.0
20260905221827 18 145 4.8 11.3 0.00 0.10 0.10 78 1015.5
20260905220827 20 112 0.0 1.6 0.00 0.10 0.10 73 1015.4
20260905215829 21 337 0.0 3.2 0.00 0.10 0.10 71 1015.1
20260905214927 21 282 0.0 1.6 0.00 0.10 0.10 71 1014.8
20260905213928 21 360 0.0 0.0 0.00 0.10 0.10 71 1014.8
20260905212929 21 325 6.4 9.7 0.00 0.10 0.10 74 1014.5
20260905211945 21 22 1.6 3.2 0.00 0.10 0.10 78 1014.5
20260905210926 20 337 1.6 3.2 0.00 0.10 0.10 81 1014.5
20260905205928 20 307 0.0 3.2 0.03 0.10 0.10 83 1014.5
20260905203929 18 337 0.0 0.0 0.03 0.10 0.10 86 1014.6
20260905203845 18 337 0.0 0.0 0.03 0.10 0.10 85 1014.6
20260905202929 18 337 0.0 0.0 0.03 0.10 0.10 84 1014.5
20260905201928 18 337 0.0 0.0 0.03 0.10 0.10 82 1014.5
20260905200027 20 180 0.0 3.2 0.08 0.08 0.08 80 1014.1
20260905195027 20 112 0.0 0.0 0.08 0.08 0.08 84 1014.1
20260905194026 20 180 0.0 0.0 0.08 0.08 0.08 80 1014.1
20260905193044 20 180 0.0 0.0 0.08 0.08 0.08 77 1014.1
20260905192928 20 180 0.0 0.0 0.08 0.08 0.08 76 1014.1
20260905191929 21 180 0.0 0.0 0.08 0.08 0.08 69 1014.0
20260905185928 22 22 0.0 0.0 0.00 0.00 0.00 64 1013.8
20260905181126 21 337 0.0 0.0 0.00 0.00 0.00 70 1013.9
20260905180128 21 22 1.6 3.2 0.00 0.00 0.00 69 1013.9
20260905175128 21 180 3.2 3.2 0.00 0.00 0.00 64 1013.8
20260905175026 21 180 3.2 4.8 0.00 0.00 0.00 64 1013.8
20260905174026 23 180 4.8 8.0 0.00 0.00 0.00 59 1013.8
20260905173927 23 350 1.6 8.0 0.00 0.00 0.00 59 1013.7
20260905173844 23 3 4.8 14.5 0.00 0.00 0.00 59 1013.7
20260905171926 21 165 0.0 1.6 0.00 0.00 0.00 62 1013.6
20260905170928 22 180 3.2 6.4 0.00 0.00 0.00 61 1013.5
20260905165943 22 360 0.0 0.0 0.00 0.00 0.00 63 1013.5
20260905165828 21 360 0.0 0.0 0.00 0.00 0.00 62 1013.6
20260905164844 21 180 0.0 3.2 0.00 0.00 0.00 64 1013.6
20260905164728 21 180 0.0 3.2 0.00 0.00 0.00 64 1013.6
20260905163826 21 261 0.0 1.6 0.00 0.00 0.00 65 1013.9
20260905163743 21 340 0.0 3.2 0.00 0.00 0.00 65 1013.8
20260905162827 21 360 0.0 1.6 0.00 0.00 0.00 63 1013.9
20260905160829 21 180 1.6 3.2 0.00 0.00 0.00 68 1013.9
20260905155828 20 180 1.6 4.8 0.00 0.00 0.00 69 1014.0
20260905154829 20 180 0.0 1.6 0.00 0.00 0.00 67 1014.1
20260905153927 20 22 1.6 3.2 0.00 0.00 0.00 68 1014.0
20260905152926 21 180 0.0 3.2 0.00 0.00 0.00 67 1014.1
20260905150926 21 357 0.0 3.2 0.00 0.00 0.00 66 1014.1
20260905145926 21 323 4.8 9.7 0.00 0.00 0.00 68 1013.9
20260905144928 20 337 4.8 8.0 0.00 0.00 0.00 69 1014.1
20260905143926 20 331 6.4 16.1 0.00 0.00 0.00 70 1014.1
20260905142927 20 341 1.6 4.8 0.00 0.00 0.00 73 1014.3
20260905141928 20 8 0.0 3.2 0.00 0.00 0.00 73 1014.2
20260905140926 20 337 3.2 4.8 0.00 0.00 0.00 72 1014.1
20260905140827 20 337 3.2 4.8 0.00 0.00 0.00 73 1014.2
20260905140728 20 345 3.2 6.4 0.00 0.00 0.00 72 1014.3
20260905135727 20 334 1.6 4.8 0.00 0.00 0.00 76 1014.2
20260905134825 18 305 0.0 4.8 0.00 0.00 0.00 77 1014.4
20260905133826 18 337 0.0 1.6 0.00 0.00 0.00 78 1014.3
20260905132825 18 8 0.0 1.6 0.00 0.00 0.00 79 1014.3
20260905130928 18 16 3.2 6.4 0.00 0.00 0.00 79 1014.0
20260905125943 18 92 3.2 6.4 0.00 0.00 0.00 81 1014.0
20260905125940 18 354 4.8 8.0 0.00 0.00 0.00 82 1014.1
20260905124030 17 354 6.4 9.7 0.00 0.00 0.00 83 1013.7
20260905120227 16 336 6.4 17.7 0.00 0.00 0.00 87 1013.7
20260905115228 16 332 4.8 9.7 0.00 0.00 0.00 89 1013.8
20260905115127 16 344 6.4 9.7 0.00 0.00 0.00 89 1013.8
20260905114130 15 360 1.6 3.2 0.00 0.00 0.00 90 1013.8
20260905113029 15 337 3.2 8.0 0.00 0.00 0.00 90 1013.8
20260905112042 15 336 1.6 3.2 0.00 0.00 0.00 88 1013.8
20260905110126 14 337 0.0 3.2 0.00 0.00 0.00 89 1013.7
20260905105126 14 337 0.0 3.2 0.00 0.00 0.00 89 1013.5
20260905105026 14 1 0.0 3.2 0.00 0.00 0.00 88 1013.5
20260905104027 13 292 0.0 0.0 0.00 0.00 0.00 89 1013.5
20260905103925 13 292 1.6 4.8 0.00 0.00 0.00 89 1013.5
20260905103830 13 292 1.6 3.2 0.00 0.00 0.00 89 1013.6
20260905102927 14 202 0.0 0.0 0.00 0.00 0.00 89 1013.7
20260905101025 14 202 0.0 1.6 0.00 0.00 0.00 88 1013.6
20260905100930 14 202 0.0 0.0 0.00 0.00 0.00 88 1013.6
20260905094927 14 270 0.0 0.0 0.00 0.00 0.00 88 1013.4
20260905093927 13 247 0.0 1.6 0.00 0.00 0.00 88 1013.3
20260905093026 13 180 0.0 0.0 0.00 0.00 0.00 87 1013.3
20260905092028 13 180 0.0 0.0 0.00 0.00 0.00 87 1013.2
20260905091026 13 315 0.0 0.0 0.00 0.00 0.00 88 1013.2
20260905090042 13 315 0.0 0.0 0.00 0.00 0.00 88 1013.2
20260905085125 13 315 0.0 0.0 0.00 0.00 0.00 87 1013.0
20260905084126 13 315 0.0 0.0 0.00 0.00 0.00 89 1013.2
20260905083128 13 315 0.0 0.0 0.00 0.00 0.00 89 1013.2
20260905083027 13 315 0.0 0.0 0.00 0.00 0.00 89 1013.2
20260905082029 13 315 0.0 0.0 0.00 0.00 0.00 89 1013.2
20260905081028 13 315 0.0 0.0 0.00 0.00 0.00 89 1013.2
20260905075927 13 315 0.0 0.0 0.00 0.00 0.00 88 1013.2
20260905075025 13 315 0.0 0.0 0.00 0.00 0.00 90 1013.2
20260905074027 13 315 0.0 0.0 0.00 0.00 0.00 89 1013.4
20260905073926 13 315 0.0 0.0 0.00 0.00 0.00 90 1013.3
20260905072928 14 315 0.0 0.0 0.00 0.00 0.00 89 1013.3
20260905070225 15 315 0.0 0.0 0.00 0.00 0.00 89 1013.4
20260905070126 15 315 0.0 0.0 0.00 0.00 0.00 89 1013.5
20260905065127 15 315 0.0 0.0 0.00 0.00 0.00 89 1013.6
20260905064225 15 315 0.0 0.0 0.00 0.00 0.00 90 1013.7
20260905064126 15 315 0.0 0.0 0.00 0.00 0.00 90 1013.7
20260905063028 15 315 0.0 0.0 0.00 0.00 0.00 89 1013.6
20260905062025 15 306 1.6 1.6 0.00 0.00 0.00 88 1013.7
20260905061026 15 292 0.0 0.0 0.00 0.00 0.00 88 1013.7
20260905060027 15 292 0.0 0.0 0.00 0.00 0.00 89 1013.7
20260905055125 15 292 0.0 0.0 0.00 0.00 0.00 88 1013.8
20260905055027 15 292 0.0 0.0 0.00 0.00 0.00 89 1013.7
20260905054026 15 292 0.0 0.0 0.00 0.00 0.00 90 1013.9
20260905053027 15 292 0.0 0.0 0.00 0.00 0.00 89 1013.9
20260905051128 15 292 0.0 0.0 0.00 0.00 0.00 89 1014.0
20260905050225 15 292 0.0 0.0 0.00 0.00 0.00 88 1014.1